Hourly Data Report for February 08, 2017

All times are specified in Local Standard Time (LST). Add 1 hour to adjust for Daylight Saving Time where and when it is observed.

TORONTO INTL A
ONTARIO

43°40'36.000" N
79°37'50.000" W
173.40 m
6158731
71624
YYZ

Download Data

Hourly Data (February 2017)
Hourly Data Report for February 8, 2017
TIME Temp Definition
°C
Dew Point Definition
°C
Rel Hum Definition
%
Wind Dir Definition
10's deg

Wind Spd Definition
km/h
Visibility Definition
km
Stn Press Definition
kPa
Hmdx Definition


Wind Chill Definition


Weather Definition


00:00 3.7 3.3 97 27 33 24.1 97.02     LegendNANA
01:00 3.7 1.9 88 27 42 24.1 97.19     Mostly Cloudy
02:00 3.0 0.9 86 28 52 24.1 97.36     LegendNANA
03:00 2.5 0.2 85 27 26 24.1 97.51     LegendNANA
04:00 2.8 -0.3 80 27 37 24.1 97.68     Cloudy
05:00 0.9 -3.6 72 31 53 24.1 97.99     LegendNANA
06:00 0.0 -5.2 68 30 44 24.1 98.25   -8 LegendNANA
07:00 -0.9 -6.1 68 30 30 24.1 98.41   -8 Mostly Cloudy
08:00 -1.6 -8.4 60 30 39 24.1 98.58   -9 LegendNANA
09:00 -1.7 -8.5 60 31 28 24.1 98.72   -8 LegendNANA
10:00 -1.6 -7.8 63 30 25 24.1 98.81   -8 Cloudy
11:00 -1.8 -8.6 60 31 35 24.1 98.94   -9 LegendNANA
12:00 -2.0 -9.0 59 32 37 24.1 98.97   -10 LegendNANA
13:00 -1.5 -8.7 58 32 28 24.1 98.95   -8 Mostly Cloudy
14:00 -0.9 -8.2 58 29 30 24.1 98.94   -8 LegendNANA
15:00 -1.2 -8.2 59 30 21 24.1 98.94   -7 LegendNANA
16:00 -3.0 -7.9 69 35 21 24.1 99.03   -9 Cloudy
17:00 -4.2 -8.5 72 35 21 19.3 99.12   -11 Snow Showers
18:00 -4.7 -8.8 73 36 23 24.1 99.12   -12 Snow Showers
19:00 -5.3 -9.1 75 36 21 19.3 99.18   -12 Snow Showers
20:00 -5.3 -10.7 66 36 22 24.1 99.21   -12 LegendNANA
21:00 -6.0 -12.0 63 36 23 24.1 99.26   -13 LegendNANA
22:00 -6.2 -14.8 51 34 30 24.1 99.20   -15 Mostly Cloudy
23:00 -6.8 -15.3 51 33 26 24.1 99.22   -15 LegendNANA

Notes on Data Quality.

Legend

  • E = Estimated
  • M = Missing
  • NA = Not Available
Date modified: